Theta_e
273 276 275 275 275 276 272 271 267 273 269 276 279 280 277 286 283 283 281 279 278 277 278 278 279 279 280 281 283 285 285 285 284 285 285 285 285 285 285 285 285 285 285 284
269 275 275 274 276 276 276 275 275 276 275 282 284 284 282 284 282 281 280 278 278 277 278 278 278 279 279 280 280 283 282 282 283 283 283 283 283 283 283 283 283 283 283 283
267 274 273 267 274 275 273 274 272 269 276 280 280 279 282 281 281 281 279 278 277 277 277 278 279 280 279 279 280 280 281 281 282 282 282 282 282 282 282 282 282 282 282 282
266 268 263 277 282 280 276 278 278 277 279 281 278 279 284 276 281 281 280 278 278 277 278 279 280 280 281 280 280 280 280 280 281 281 281 282 281 281 281 281 281 281 281 282
261 261 273 276 277 276 274 275 282 281 283 284 282 286 283 277 283 282 280 279 279 278 278 279 279 280 280 280 280 280 279 280 281 281 281 281 280 281 281 281 281 281 282 282
261 261 261 276 279 283 283 272 284 284 284 280 284 278 277 280 281 282 281 280 279 278 278 278 279 280 278 278 279 279 280 280 281 281 281 280 280 280 281 281 280 281 280 280
264 262 270 279 282 283 269 275 285 285 283 281 281 281 284 280 278 274 273 276 280 273 276 277 280 280 277 277 276 278 280 280 280 281 280 281 280 280 280 279 279 279 279 279
265 264 265 281 280 276 281 282 283 283 282 283 285 284 282 277 276 274 273 274 275 276 275 274 276 278 277 277 279 279 279 279 279 279 280 280 279 279 279 278 277 277 277 277
274 274 280 283 281 283 284 282 281 281 281 284 286 285 284 281 279 278 276 278 276 277 277 277 277 278 277 278 279 279 279 278 279 279 279 280 279 278 278 278 277 276 276 276
275 279 280 280 282 282 282 282 283 283 282 285 285 286 284 283 282 280 278 276 275 275 275 275 276 277 276 278 277 275 275 276 276 276 277 278 279 279 278 277 277 276 276 275
274 278 279 280 280 281 281 282 284 283 283 284 284 284 284 282 281 280 278 276 274 273 273 273 274 273 272 275 273 273 273 274 275 275 274 275 276 275 276 276 278 274 273 274
277 280 281 280 280 281 280 280 281 282 281 283 284 284 284 282 281 278 276 275 273 272 272 271 270 269 269 269 270 270 273 273 272 273 272 273 274 275 281 281 282 282 281 277
283 279 280 278 278 279 278 278 279 279 280 281 283 283 282 280 279 277 275 274 273 271 270 269 268 267 265 266 267 269 269 270 269 271 271 270 270 271 270 275 281 281 280 280
280 278 278 278 278 279 280 278 276 274 275 278 279 276 276 275 274 274 274 273 271 270 267 266 266 265 265 266 266 266 267 271 270 270 269 269 269 268 269 267 266 267 276 277
279 279 279 275 274 272 271 271 270 272 272 273 273 277 276 275 274 276 274 276 271 266 265 264 264 266 264 264 266 266 268 268 268 268 268 269 268 268 267 267 266 264 265 271
273 271 267 270 271 268 268 266 270 271 271 270 273 273 275 273 271 273 274 275 276 272 270 268 267 267 265 264 265 265 267 269 269 267 266 267 267 266 266 265 264 264 263 264
270 270 264 267 270 271 271 270 274 273 273 275 276 272 271 271 269 272 274 274 279 275 272 271 271 267 267 266 266 267 267 265 267 266 266 265 265 265 265 264 264 265 267 267
281 276 277 273 273 274 270 272 271 272 274 276 272 273 272 273 278 279 274 272 276 277 280 274 270 269 268 267 267 266 267 266 265 269 267 268 273 273 266 265 266 267 267 266
280 280 275 274 273 273 273 274 272 273 269 272 273 274 276 276 273 272 271 274 274 276 277 274 275 271 269 267 266 267 267 267 268 275 275 276 275 275 274 273 270 268 267 267
279 278 275 275 273 273 272 271 273 272 271 272 271 270 272 273 272 272 273 279 278 277 271 274 274 271 267 269 273 269 268 270 276 276 275 275 274 274 274 274 274 273 272 269
273 273 275 275 275 272 272 273 274 272 271 273 274 275 276 274 272 273 274 277 274 272 268 269 271 270 270 270 269 267 270 277 277 277 277 276 275 275 274 275 275 269 267 267
264 270 272 272 273 273 271 272 273 270 271 271 272 269 271 272 272 272 274 276 269 272 269 268 269 269 271 273 277 276 277 278 278 278 278 278 277 276 275 274 270 269 266 265
266 267 267 268 271 271 267 267 268 271 271 271 271 272 275 276 277 277 278 275 268 268 269 269 268 270 271 277 277 276 277 276 276 277 277 276 275 273 269 267 266 264 266 267
266 264 264 263 264 267 269 264 261 262 263 263 265 267 272 271 269 271 267 268 272 271 269 269 271 273 269 268 266 273 274 275 275 275 273 269 266 264 263 262 263 266 266 267
265 262 261 262 265 264 265 264 263 259 259 261 261 262 265 265 272 268 267 265 269 265 263 267 270 270 261 261 263 265 263 262 262 262 262 263 262 262 262 263 266 266 267 267
262 265 265 264 265 266 266 264 264 263 262 260 260 261 262 263 264 265 264 264 263 263 266 266 263 261 261 261 263 263 261 261 261 261 260 260 260 260 262 264 265 266 266 266
264 265 264 265 264 264 265 264 265 262 262 263 263 263 264 261 262 262 263 262 262 262 264 268 268 268 267 266 260 260 260 260 261 259 259 260 261 263 263 265 265 265 264 264
Wind_Speed
7 16 9 14 15 12 11 12 9 13 8 26 22 17 7 13 18 20 18 19 17 18 17 17 18 17 16 15 15 10 8 9 9 8 10 12 13 13 14 15 14 16 15 15
8 7 8 14 13 15 17 16 16 21 28 25 15 6 10 12 17 18 18 18 18 17 17 17 17 16 15 14 14 12 11 10 9 12 13 14 15 14 16 17 17 17 17 17
8 5 8 8 8 14 6 6 8 8 15 4 9 8 5 10 14 15 16 17 17 17 15 15 16 15 14 13 12 13 12 11 11 12 14 14 15 16 18 17 18 18 18 19
6 6 4 6 4 5 10 6 15 10 11 8 7 5 4 3 10 13 14 16 14 13 13 14 15 14 12 12 12 12 13 13 12 13 14 15 17 17 17 15 18 16 16 16
1 3 10 5 5 5 7 9 14 17 14 8 5 7 2 2 8 8 10 11 11 11 11 12 14 14 13 13 12 13 13 13 13 13 14 16 16 16 15 15 16 15 13 15
2 2 7 4 4 2 4 7 6 8 6 2 4 3 4 4 6 9 7 8 10 10 9 10 12 12 14 14 14 14 13 13 12 12 14 16 15 15 14 15 16 13 15 14
4 4 13 8 7 2 7 9 7 6 6 5 4 6 2 1 3 2 3 5 8 6 8 10 10 10 13 13 15 13 13 13 14 13 15 14 14 13 14 15 15 14 14 11
4 3 12 8 4 8 6 2 7 6 6 6 5 5 3 2 1 3 5 6 7 6 7 7 7 9 11 13 9 11 12 14 14 14 11 11 14 12 12 13 14 13 12 9
14 12 2 12 4 7 0 4 5 5 5 6 5 5 6 4 4 2 3 3 5 5 5 7 8 8 10 8 8 9 11 12 11 12 11 10 11 10 9 9 9 8 7 6
2 8 18 13 10 9 6 7 6 6 8 7 6 6 6 5 4 3 2 2 2 5 5 6 6 7 6 6 6 6 9 8 8 9 8 8 7 6 6 6 6 6 6 6
8 14 13 16 12 12 10 9 8 8 8 9 7 6 7 6 6 5 4 2 2 3 2 3 4 4 5 5 5 6 6 6 6 6 6 7 7 5 5 4 5 4 4 4
10 10 5 4 4 4 9 9 11 10 7 7 7 8 8 6 6 5 5 4 3 2 2 1 2 3 4 4 4 4 5 4 4 4 4 4 5 5 13 10 10 11 11 7
12 3 4 2 3 4 4 6 6 8 8 8 5 6 6 5 5 6 6 6 5 5 4 2 1 0 2 3 3 5 4 3 3 3 3 3 3 4 4 5 10 9 8 9
7 4 6 6 7 9 6 3 4 3 4 5 7 3 5 5 4 7 7 7 7 6 5 4 3 3 3 0 4 4 4 4 3 3 3 3 3 3 4 4 3 1 3 4
11 12 7 3 4 4 4 4 4 5 5 4 4 7 8 8 7 8 6 7 6 6 5 4 4 6 4 3 4 4 3 2 3 3 2 3 3 2 2 3 3 3 2 2
2 3 4 6 6 5 5 4 7 7 6 5 7 8 8 6 5 6 7 7 9 9 7 7 7 5 5 5 5 3 3 5 4 3 2 2 2 2 1 1 1 3 3 4
6 4 2 7 11 10 12 6 8 8 7 9 10 7 7 6 4 6 7 6 8 5 7 7 8 5 6 5 5 3 3 2 3 1 2 2 2 3 3 3 4 4 4 4
13 5 12 8 9 13 10 11 9 9 11 11 8 8 8 9 11 11 7 6 3 4 6 7 6 6 6 7 5 2 3 3 3 3 3 3 3 3 3 3 4 5 4 4
16 15 9 10 8 9 9 10 12 10 7 8 9 12 11 10 7 6 6 7 6 7 8 6 8 8 7 6 5 3 3 3 3 3 4 4 4 4 5 5 5 5 5 5
10 11 8 8 8 9 9 6 9 9 9 10 8 7 9 8 7 7 7 11 11 6 4 7 8 7 6 7 8 4 4 5 5 5 5 5 5 5 5 7 7 6 6 6
6 7 10 11 11 9 8 8 11 11 11 11 13 13 14 9 8 7 6 7 6 7 5 6 6 5 5 5 5 3 4 6 6 6 6 6 6 6 6 7 8 5 6 5
4 7 8 9 10 10 9 8 9 8 11 12 9 7 7 8 9 7 7 7 3 9 6 5 5 7 5 8 6 7 7 7 6 5 5 6 7 8 8 8 6 6 5 5
4 6 6 8 10 8 6 6 7 9 11 12 12 11 11 8 8 9 9 7 4 6 5 5 7 9 9 8 6 6 6 6 6 5 6 6 6 6 5 5 5 4 5 5
4 4 4 4 5 6 8 5 4 4 5 5 5 5 7 4 2 1 3 6 8 9 5 5 6 9 8 4 3 4 5 5 4 5 4 3 4 4 3 3 4 5 4 6
1 2 3 4 4 3 5 5 6 4 4 2 4 4 5 1 3 3 4 2 7 6 3 3 5 5 3 3 3 3 2 2 2 3 3 3 3 3 3 3 4 5 5 5
1 1 2 3 2 3 4 5 4 3 5 2 1 2 2 2 3 4 4 4 2 3 4 4 3 3 2 2 2 2 2 2 2 3 3 3 3 3 3 3 4 4 4 4
1 3 3 3 3 3 4 4 4 3 3 4 2 3 4 3 3 3 5 5 4 2 2 3 3 3 2 2 2 1 1 0 1 1 1 2 2 2 2 2 2 3 3 3
Wind_Direction
236 264 265 261 250 237 211 204 189 269 291 290 298 310 298 330 343 341 341 345 344 341 340 340 341 344 345 350 356 3 42 67 72 80 82 83 82 75 80 84 86 86 91 89
293 242 236 259 247 232 234 240 253 263 278 280 285 297 336 352 344 340 341 344 344 341 343 346 347 348 348 355 6 14 31 51 67 75 80 80 81 83 86 84 84 86 85 88
269 341 311 304 229 198 200 186 174 202 234 296 322 323 351 352 343 340 343 345 345 344 346 350 349 349 356 360 11 30 33 42 57 72 79 81 86 84 79 88 88 87 90 93
273 342 353 236 192 183 196 204 210 262 268 277 259 258 95 319 346 342 348 344 347 345 346 355 354 357 3 13 20 34 45 46 50 66 75 81 79 80 87 86 88 90 91 95
148 258 288 290 156 174 163 272 215 225 253 266 322 312 190 334 8 348 351 342 346 344 345 357 4 1 12 19 29 37 42 50 56 63 75 79 80 82 85 88 87 83 83 91
98 187 247 246 153 70 143 296 179 175 214 255 345 2 257 346 11 4 0 348 356 348 351 7 9 11 22 24 31 35 39 46 51 63 73 76 77 78 83 82 82 84 84 83
205 252 282 243 155 194 83 242 170 180 186 184 200 200 241 330 358 358 313 345 356 347 6 3 5 15 39 34 32 28 36 42 48 53 62 68 77 77 83 86 85 86 88 89
172 198 280 144 76 178 212 100 164 186 184 196 222 164 209 203 287 18 358 353 352 2 3 354 1 31 33 39 27 41 48 51 50 51 56 63 71 75 78 83 86 85 87 83
192 212 227 196 216 212 13 167 195 186 194 193 204 198 176 190 168 106 50 3 348 16 10 11 17 30 47 22 30 46 52 53 53 56 56 60 71 74 76 78 85 88 93 97
76 247 236 234 255 249 226 226 200 191 186 185 200 189 178 177 173 153 115 54 4 25 29 23 12 32 28 26 24 52 64 59 60 66 65 57 61 64 74 77 92 98 105 99
262 278 281 264 232 232 231 213 211 196 188 194 194 181 179 187 184 175 160 149 93 77 46 13 11 32 17 26 44 56 52 46 47 49 49 58 57 58 53 42 74 80 71 87
230 217 198 236 182 198 205 212 205 187 199 204 196 179 176 185 183 166 164 160 159 153 125 328 30 21 5 8 70 84 69 60 62 63 51 62 73 63 64 67 79 99 117 124
242 151 208 164 194 174 189 215 199 194 191 181 181 162 173 172 174 165 160 170 178 185 177 158 140 284 308 350 59 88 105 94 95 88 85 95 91 103 100 62 101 118 131 148
226 121 272 189 231 195 175 200 153 134 153 158 158 148 144 151 146 173 186 194 175 165 182 187 179 234 249 54 112 114 121 131 126 134 130 116 124 140 139 144 150 248 163 155
215 205 217 135 105 135 121 127 128 171 160 150 175 165 164 171 187 199 182 169 159 167 197 175 190 234 205 181 150 144 142 144 140 137 135 150 143 137 156 161 175 173 33 19
207 174 150 192 203 191 167 186 173 197 181 183 181 188 191 181 175 184 179 162 169 201 201 198 209 220 178 172 175 164 166 168 166 157 152 156 154 157 182 192 205 187 178 208
121 255 188 245 211 201 205 201 191 188 183 191 198 178 163 171 175 189 196 187 205 194 194 190 217 182 178 180 181 190 166 157 183 100 154 192 191 198 205 199 216 221 224 208
209 191 186 176 185 203 204 202 188 185 197 198 158 170 174 182 201 207 199 174 189 221 212 202 186 170 178 186 187 185 154 159 163 186 199 200 211 209 210 210 218 224 240 229
207 214 191 197 186 189 191 188 191 194 169 167 166 192 196 201 197 197 157 170 191 217 239 182 184 172 186 182 165 164 161 167 177 199 212 220 228 222 225 230 234 232 225 222
207 215 185 195 174 179 209 172 163 180 185 176 171 163 190 207 192 180 170 202 210 207 181 181 173 173 165 180 180 180 179 191 210 214 211 217 224 229 228 232 238 239 237 236
216 190 202 194 199 193 193 170 162 188 189 185 187 197 199 180 174 171 176 218 226 187 161 150 164 178 177 161 167 182 199 216 218 225 225 225 229 234 240 252 256 234 241 239
204 212 213 196 196 208 191 180 173 162 180 193 196 164 163 180 166 190 220 202 197 165 162 171 185 183 174 174 189 203 215 220 225 224 232 250 263 265 262 261 242 240 229 229
243 222 204 196 204 214 150 176 174 172 186 192 193 186 187 193 187 173 210 204 162 173 171 179 178 185 193 195 201 205 211 218 226 237 255 256 258 259 248 241 246 243 246 245
219 206 209 204 162 158 176 204 158 135 153 166 171 177 168 172 278 221 76 122 155 173 181 175 185 181 175 170 159 202 216 224 235 258 268 248 234 239 244 243 254 257 252 258
256 220 183 155 169 164 133 153 128 123 119 137 173 172 178 220 171 182 137 142 137 135 151 138 153 152 130 166 186 205 216 215 226 222 224 232 241 243 245 243 259 263 260 258
317 230 210 155 176 158 138 138 149 143 133 172 274 153 178 140 108 97 96 112 123 129 129 137 143 152 136 144 182 210 213 236 241 239 231 242 246 251 251 256 260 267 272 277
16 49 54 48 31 75 110 112 105 146 161 149 157 186 145 120 108 104 106 100 101 121 113 115 120 129 128 111 104 146 197 290 317 306 313 296 285 265 262 281 309 303 296 297